Regional Weather Roundup
Issued by NWS

Home | Current Version | Previous Version | Text Only | Print | Product List | Glossary On
Versions: 1 2 3 4 5 6 7 8 9 10 11 12 13 14 15 16 17 18 19 20 21 22 23 24 25 26 27 28 29 30 31 32 33 34 35 36 37 38 39 40 41 42 43 44 45 46 47 48 49 50
000
ASUS45 KBOU 142207
RWRCO

WEATHER ROUNDUP FOR COLORADO
NATIONAL WEATHER SERVICE DENVER/BOULDER CO
300 PM MST SUN FEB 14 2016

NOTE: "FAIR" INDICATES FEW OR NO CLOUDS BELOW 12000 FEET WITH NO
SIGNIFICANT WEATHER AND/OR OBSTRUCTIONS TO VISIBILITY.

COZ001>005-013-030-031-142300-
...NORTHWEST COLORADO...

CITY           SKY/WX    TMP DP  RH WIND       PRES   REMARKS
CRAIG          CLOUDY    32  28  85 E3        30.11R
HAYDEN         CLOUDY    30  27  86 N5        30.09S WCI  25
MEEKER         CLOUDY    38  25  59 CALM      30.09R
MOUNT WERNER   NOT AVBL
STEAMBOAT SPGS CLOUDY    29  27  91 CALM      30.08S VSB 1
WALDEN         FAIR      30  23  74 SW21      30.00F WCI  17
$$

COZ006>008-011-142300-
...WEST CENTRAL VALLEYS...

CITY           SKY/WX    TMP DP  RH WIND       PRES   REMARKS
GRAND JUNCTION CLOUDY    41  31  67 NW3       30.09F
MONTROSE       CLOUDY    43  26  51 SW7       30.09F
EAGLE          CLOUDY    37  25  60 SW16G22   30.10S
RIFLE          CLOUDY    39  23  52 CALM      30.10S
DELTA          CLOUDY    47  30  50 W7        30.09F
NUCLA          FAIR      46  27  46 CALM      30.13F
$$

COZ017>023-064>068-142300-
...SOUTHWEST COLORADO...

CITY           SKY/WX    TMP DP  RH WIND       PRES   REMARKS
DURANGO        FAIR      43  21  41 E3        30.05F
CORTEZ         FAIR      50  21  32 SE3       30.10F
PAGOSA SPRINGS FAIR      44  15  30 CALM      30.05S
TELLURIDE      CLOUDY    37   7  29 W12       30.15F
WOLF CREEK PAS FAIR      30  12  47 SW12G18   30.13F WCI  21
$$

COZ009-010-012-014-032>034-037-058>063-142300-
...CENTRAL COLORADO...

CITY           SKY/WX    TMP DP  RH WIND       PRES   REMARKS
ASPEN          LGT SNOW  32  25  75 SW3       30.10S
BUENA VISTA    CLOUDY    40  20  43 NW21G26   29.99F
COPPER MTN     SNOW      23  18  80 W13       30.05F VSB 1/2 WCI  11
BERTHOUD PASS  SNOW      14   3  62 MISG      29.97R VSB 1/4
COTTONWOOD PAS FAIR      34  14  44 W33G55    29.95F WCI  19
GUNNISON       FAIR      23  16  74 SE3       30.15F
KREMMLING      LGT SNOW  32  27  80 CALM      30.07F
LEADVILLE      LGT SNOW  23  20  88 NW8       30.06S VSB 3/4 WCI  14
MONARCH PASS   CLOUDY    18  14  86 W52G59    30.13F WCI  -6
SALIDA         NOT AVBL
SUNLIGHT       LGT SNOW  27  23  86 CALM      30.15R VSB 3/4
WILKERSON PASS FAIR      27  12  54 W21G36    29.97R WCI  13
$$

COZ069>075-142300-
...SAN LUIS VALLEY/SANGRE DE CRISTO MOUNTAINS...

CITY           SKY/WX    TMP DP  RH WIND       PRES   REMARKS
ALAMOSA        FAIR      48  10  21 NW3       29.97S
LA VETA PASS   FAIR      34  10  37 MISG      29.96R
SAGUACHE       FAIR      39  19  45 NW36G48   29.97S
$$

COZ035-036-038>040-142300-
...NORTHERN COLORADO FRONT RANGE...

CITY           SKY/WX    TMP DP  RH WIND       PRES   REMARKS
DENVER INTL AP PTSUNNY   46  22  38 E3        29.88R
DMNS CITY PARK   N/A     51  17  26 NW20      29.89R
AURORA         PTSUNNY   45  23  43 E9        29.88S
FRONT RANGE AP PTSUNNY   45  21  39 MISG      29.89R
ERIE MUNI ARPT FAIR      50  18  28 NW10      29.87R
BOULDER MUN AP PTSUNNY   50  21  32 S5        29.86R
CENTENNIAL     PTSUNNY   46  21  37 SE3       29.87F
BROOMFIELD     PTSUNNY   48  19  32 W18G35    29.89
FORT COLLINS   FAIR      48  28  46 SE12      29.86R
LONGMONT       FAIR      52  22  30 W21G32    29.89R
$$

COZ041-046-047-076>085-087-088-142300-
...PIKES PEAK/PALMER DIVIDE AND SOUTHERN FOOTHILLS...

CITY           SKY/WX    TMP DP  RH WIND       PRES   REMARKS
COLO. SPRINGS  PTSUNNY   48  24  39 VRB3      29.90R
A. F. ACADEMY  PTSUNNY   50  14  23 W17G25    29.87F
SCHRIEVER AFB  PTSUNNY   47  23  38 N3        29.90R
ELLICOTT       FAIR     N/A N/A N/A SE6       29.89R
FALCON         FAIR      43  22  44 CALM      29.92R
FORT CARSON    FAIR      47  25  43 SE1       29.88R
LIMON          FAIR      45  27  49 CALM      29.88S
MONUMENT HILL  FAIR      36  25  64 CALM      29.91S
TRINIDAD       FAIR      60  11  14 NW12      29.82F
$$

COZ042>045-048>051-090-091-142300-
...NORTHEAST COLORADO...

CITY           SKY/WX    TMP DP  RH WIND       PRES   REMARKS
GREELEY ARPT   FAIR      46  32  57 SW6       29.87S
AKRON          FAIR      46  26  45 NW16G25   29.85R
BURLINGTON     FAIR      46  25  43 SW10      29.87F
WRAY           FAIR      50  27  41 SW3       29.83F
STERLING       FAIR      54  27  35 NW24G33   29.82R
HOLYOKE        FAIR      46  30  53 SW7       29.82F
FORT MORGAN    FAIR      49  24  37 W14       29.85S
$$

COZ086-089-092>099-142300-
...SOUTHEAST COLORADO...

CITY           SKY/WX    TMP DP  RH WIND       PRES   REMARKS
PUEBLO         FAIR      52  24  33 NE6       29.87R
LA JUNTA       FAIR      54  20  26 NE15      29.85S
LAMAR          FAIR      53  20  27 S8        29.86F
SPRINGFIELD      N/A     52  17  25 S15       29.86F
$$



USA.gov is the U.S. government's official web portal to all federal, state and local government web resources and services.